| time (UTC) | temp F | wind direction | speed MPH | gust MPH | rain 1hr in | rain 24hr in | rain mn in | humidity % | barometer mb |
| 20260506195556 | 65 | 0 | 2.0 | 7.0 | 0.00 | 0.00 | 0.00 | 74 | 1020.4 |
| 20260506195056 | 65 | 0 | 1.0 | 5.0 | 0.00 | 0.00 | 0.00 | 74 | 1020.4 |
| 20260506194556 | 65 | 238 | 2.0 | 4.0 | 0.00 | 0.00 | 0.00 | 73 | 1020.4 |
| 20260506194055 | 65 | 223 | 0.0 | 5.0 | 0.00 | 0.00 | 0.00 | 75 | 1020.4 |
| 20260506193554 | 64 | 259 | 1.0 | 5.0 | 0.00 | 0.00 | 0.00 | 75 | 1020.5 |
| 20260506193055 | 64 | 276 | 0.0 | 3.0 | 0.00 | 0.00 | 0.00 | 75 | 1020.5 |
| 20260506192554 | 64 | 194 | 0.0 | 3.0 | 0.00 | 0.00 | 0.00 | 76 | 1020.6 |
| 20260506192056 | 63 | 215 | 1.0 | 5.0 | 0.00 | 0.00 | 0.00 | 76 | 1020.6 |
| 20260506191553 | 63 | 223 | 1.0 | 6.0 | 0.00 | 0.00 | 0.00 | 77 | 1020.6 |
| 20260506191054 | 62 | 0 | 2.0 | 6.0 | 0.00 | 0.00 | 0.00 | 77 | 1020.6 |
| 20260506190554 | 62 | 214 | 1.0 | 6.0 | 0.00 | 0.00 | 0.00 | 77 | 1020.7 |
| 20260506190058 | 62 | 244 | 2.0 | 8.0 | 0.00 | 0.00 | 0.00 | 75 | 1020.8 |
| 20260506185556 | 63 | 216 | 1.0 | 8.0 | 0.00 | 0.00 | 0.00 | 74 | 1020.7 |
| 20260506185054 | 64 | 217 | 1.0 | 5.0 | 0.00 | 0.00 | 0.00 | 74 | 1020.8 |
| 20260506184601 | 64 | 300 | 2.0 | 5.0 | 0.00 | 0.00 | 0.00 | 73 | 1020.8 |
| 20260506184056 | 64 | 0 | 1.0 | 7.0 | 0.00 | 0.00 | 0.00 | 74 | 1020.7 |
| 20260506183554 | 64 | 259 | 1.0 | 7.0 | 0.00 | 0.00 | 0.00 | 74 | 1020.8 |
| 20260506183056 | 64 | 248 | 2.0 | 7.0 | 0.00 | 0.00 | 0.00 | 73 | 1021.0 |
| 20260506182554 | 64 | 233 | 2.0 | 7.0 | 0.00 | 0.00 | 0.00 | 73 | 1020.9 |
| 20260506182055 | 64 | 0 | 2.0 | 7.0 | 0.00 | 0.00 | 0.00 | 74 | 1021.0 |
| 20260506181556 | 64 | 263 | 3.0 | 7.0 | 0.00 | 0.00 | 0.00 | 73 | 1020.8 |
| 20260506181056 | 64 | 0 | 1.0 | 5.0 | 0.00 | 0.00 | 0.00 | 74 | 1020.8 |
| 20260506180556 | 64 | 284 | 0.0 | 7.0 | 0.00 | 0.00 | 0.00 | 75 | 1020.8 |
| 20260506180059 | 63 | 310 | 1.0 | 7.0 | 0.00 | 0.00 | 0.00 | 75 | 1020.8 |
| 20260506175557 | 63 | 214 | 2.0 | 7.0 | 0.00 | 0.00 | 0.00 | 75 | 1020.9 |
| 20260506175054 | 63 | 250 | 1.0 | 7.0 | 0.00 | 0.00 | 0.00 | 75 | 1020.8 |
| 20260506174554 | 63 | 0 | 1.0 | 6.0 | 0.00 | 0.00 | 0.00 | 75 | 1020.8 |
| 20260506174055 | 63 | 250 | 1.0 | 5.0 | 0.00 | 0.00 | 0.00 | 76 | 1020.8 |
| 20260506173555 | 63 | 238 | 2.0 | 5.0 | 0.00 | 0.00 | 0.00 | 75 | 1020.9 |
| 20260506173108 | 64 | 207 | 1.0 | 4.0 | 0.00 | 0.00 | 0.00 | 75 | 1020.9 |
| 20260506172555 | 63 | 273 | 0.0 | 5.0 | 0.00 | 0.00 | 0.00 | 77 | 1021.0 |
| 20260506172054 | 63 | 0 | 0.0 | 5.0 | 0.00 | 0.00 | 0.00 | 78 | 1021.0 |
| 20260506171602 | 62 | 0 | 1.0 | 6.0 | 0.00 | 0.00 | 0.00 | 78 | 1021.1 |
| 20260506171057 | 62 | 254 | 2.0 | 7.0 | 0.00 | 0.00 | 0.00 | 77 | 1021.2 |
| 20260506170555 | 62 | 219 | 1.0 | 7.0 | 0.00 | 0.00 | 0.00 | 76 | 1021.2 |
| 20260506170100 | 62 | 0 | 1.0 | 5.0 | 0.00 | 0.00 | 0.00 | 77 | 1021.2 |
| 20260506165555 | 62 | 292 | 0.0 | 5.0 | 0.00 | 0.00 | 0.00 | 78 | 1021.1 |
| 20260506165053 | 62 | 253 | 1.0 | 5.0 | 0.00 | 0.00 | 0.00 | 79 | 1020.9 |
| 20260506164613 | 61 | 295 | 1.0 | 5.0 | 0.00 | 0.00 | 0.00 | 80 | 1020.9 |
| 20260506164054 | 61 | 223 | 1.0 | 4.0 | 0.00 | 0.00 | 0.00 | 79 | 1021.0 |
| 20260506163554 | 61 | 245 | 1.0 | 4.0 | 0.00 | 0.00 | 0.00 | 80 | 1021.1 |
| 20260506163102 | 61 | 0 | 0.0 | 4.0 | 0.00 | 0.00 | 0.00 | 81 | 1021.1 |
| 20260506162555 | 60 | 0 | 0.0 | 4.0 | 0.00 | 0.00 | 0.00 | 80 | 1021.1 |
| 20260506162055 | 60 | 232 | 0.0 | 3.0 | 0.00 | 0.00 | 0.00 | 80 | 1021.1 |
| 20260506161556 | 60 | 216 | 0.0 | 3.0 | 0.00 | 0.00 | 0.00 | 80 | 1021.0 |
| 20260506161055 | 60 | 0 | 0.0 | 3.0 | 0.00 | 0.00 | 0.00 | 80 | 1021.1 |
| 20260506160554 | 60 | 291 | 0.0 | 4.0 | 0.00 | 0.00 | 0.00 | 80 | 1021.0 |
| 20260506160107 | 60 | 0 | 0.0 | 4.0 | 0.00 | 0.00 | 0.00 | 81 | 1020.9 |
| 20260506155555 | 60 | 193 | 1.0 | 4.0 | 0.00 | 0.00 | 0.00 | 80 | 1021.1 |
| 20260506155055 | 60 | 0 | 0.0 | 3.0 | 0.00 | 0.00 | 0.00 | 80 | 1021.1 |
| 20260506154556 | 60 | 236 | 1.0 | 3.0 | 0.00 | 0.00 | 0.00 | 80 | 1021.1 |
| 20260506154055 | 60 | 289 | 1.0 | 3.0 | 0.00 | 0.00 | 0.00 | 80 | 1021.1 |
| 20260506153554 | 60 | 0 | 0.0 | 3.0 | 0.00 | 0.00 | 0.00 | 81 | 1021.1 |
| 20260506153101 | 60 | 219 | 0.0 | 3.0 | 0.00 | 0.00 | 0.00 | 80 | 1021.1 |
| 20260506152555 | 60 | 0 | 0.0 | 3.0 | 0.00 | 0.00 | 0.00 | 81 | 1021.0 |
| 20260506152055 | 60 | 0 | 0.0 | 4.0 | 0.00 | 0.00 | 0.00 | 80 | 1021.0 |
| 20260506151556 | 60 | 303 | 0.0 | 4.0 | 0.00 | 0.00 | 0.00 | 80 | 1021.0 |
| 20260506151055 | 60 | 0 | 0.0 | 1.0 | 0.00 | 0.00 | 0.00 | 81 | 1021.1 |
| 20260506150555 | 59 | 0 | 0.0 | 1.0 | 0.00 | 0.00 | 0.00 | 83 | 1021.0 |
| 20260506150055 | 59 | 0 | 0.0 | 1.0 | 0.00 | 0.00 | 0.00 | 83 | 1021.0 |
| 20260506145558 | 58 | 0 | 0.0 | 1.0 | 0.00 | 0.00 | 0.00 | 83 | 1021.0 |
| 20260506145052 | 58 | 0 | 0.0 | 1.0 | 0.00 | 0.00 | 0.00 | 85 | 1021.0 |
| 20260506144555 | 58 | 0 | 0.0 | 1.0 | 0.00 | 0.00 | 0.00 | 85 | 1020.9 |
| 20260506144052 | 57 | 0 | 0.0 | 1.0 | 0.00 | 0.00 | 0.00 | 85 | 1020.9 |
| 20260506143556 | 57 | 0 | 0.0 | 0.0 | 0.00 | 0.00 | 0.00 | 85 | 1020.8 |
| 20260506143056 | 57 | 0 | 0.0 | 0.0 | 0.00 | 0.00 | 0.00 | 86 | 1020.8 |
| 20260506142556 | 57 | 0 | 0.0 | 0.0 | 0.00 | 0.00 | 0.00 | 87 | 1020.8 |
| 20260506142055 | 57 | 0 | 0.0 | 0.0 | 0.00 | 0.00 | 0.00 | 87 | 1020.8 |
| 20260506141612 | 56 | 0 | 0.0 | 0.0 | 0.00 | 0.00 | 0.00 | 87 | 1020.7 |
| 20260506141057 | 56 | 0 | 0.0 | 0.0 | 0.00 | 0.00 | 0.00 | 88 | 1020.5 |
| 20260506140558 | 56 | 0 | 0.0 | 0.0 | 0.00 | 0.00 | 0.00 | 88 | 1020.4 |
| 20260506140056 | 55 | 0 | 0.0 | 0.0 | 0.00 | 0.00 | 0.00 | 88 | 1020.4 |
| 20260506135555 | 55 | 0 | 0.0 | 0.0 | 0.00 | 0.00 | 0.00 | 87 | 1020.3 |
| 20260506135056 | 55 | 0 | 0.0 | 0.0 | 0.00 | 0.00 | 0.00 | 87 | 1020.3 |
| 20260506134558 | 55 | 0 | 0.0 | 0.0 | 0.00 | 0.00 | 0.00 | 87 | 1020.3 |
| 20260506134138 | 55 | 0 | 0.0 | 0.0 | 0.00 | 0.00 | 0.00 | 87 | 1020.2 |
| 20260506133554 | 55 | 0 | 0.0 | 0.0 | 0.00 | 0.00 | 0.00 | 87 | 1020.2 |
| 20260506133105 | 55 | 0 | 0.0 | 0.0 | 0.00 | 0.00 | 0.00 | 87 | 1020.2 |
| 20260506132555 | 55 | 0 | 0.0 | 0.0 | 0.00 | 0.00 | 0.00 | 87 | 1020.2 |
| 20260506132054 | 55 | 0 | 0.0 | 0.0 | 0.00 | 0.00 | 0.00 | 87 | 1020.1 |
| 20260506131556 | 55 | 0 | 0.0 | 0.0 | 0.00 | 0.00 | 0.00 | 87 | 1020.1 |
| 20260506131055 | 55 | 0 | 0.0 | 0.0 | 0.00 | 0.00 | 0.00 | 87 | 1020.0 |
| 20260506130556 | 55 | 0 | 0.0 | 0.0 | 0.00 | 0.00 | 0.00 | 86 | 1019.9 |
| 20260506130056 | 55 | 0 | 0.0 | 0.0 | 0.00 | 0.00 | 0.00 | 86 | 1019.9 |
| 20260506125554 | 55 | 0 | 0.0 | 0.0 | 0.00 | 0.00 | 0.00 | 86 | 1020.0 |
| 20260506125054 | 55 | 0 | 0.0 | 0.0 | 0.00 | 0.00 | 0.00 | 86 | 1020.0 |
| 20260506124555 | 55 | 0 | 0.0 | 0.0 | 0.00 | 0.00 | 0.00 | 86 | 1019.9 |
| 20260506124054 | 55 | 0 | 0.0 | 0.0 | 0.00 | 0.00 | 0.00 | 86 | 1019.7 |
| 20260506123555 | 55 | 0 | 0.0 | 0.0 | 0.00 | 0.00 | 0.00 | 86 | 1019.8 |
| 20260506123055 | 55 | 0 | 0.0 | 0.0 | 0.00 | 0.00 | 0.00 | 86 | 1019.8 |
| 20260506122556 | 55 | 0 | 0.0 | 0.0 | 0.00 | 0.00 | 0.00 | 86 | 1019.8 |
| 20260506122054 | 55 | 0 | 0.0 | 0.0 | 0.00 | 0.00 | 0.00 | 86 | 1019.8 |
| 20260506121602 | 55 | 0 | 0.0 | 0.0 | 0.00 | 0.00 | 0.00 | 86 | 1019.7 |
| 20260506121054 | 55 | 0 | 0.0 | 0.0 | 0.00 | 0.00 | 0.00 | 86 | 1019.7 |
| 20260506120555 | 55 | 0 | 0.0 | 0.0 | 0.00 | 0.00 | 0.00 | 86 | 1019.7 |
| 20260506120118 | 55 | 0 | 0.0 | 0.0 | 0.00 | 0.00 | 0.00 | 86 | 1019.7 |
| 20260506115554 | 55 | 0 | 0.0 | 0.0 | 0.00 | 0.00 | 0.00 | 86 | 1019.7 |
| 20260506115055 | 55 | 0 | 0.0 | 0.0 | 0.00 | 0.00 | 0.00 | 86 | 1019.7 |
| 20260506114600 | 55 | 0 | 0.0 | 0.0 | 0.00 | 0.00 | 0.00 | 86 | 1019.6 |
| 20260506114055 | 55 | 0 | 0.0 | 1.0 | 0.00 | 0.00 | 0.00 | 85 | 1019.5 |
| 20260506113555 | 55 | 0 | 0.0 | 2.0 | 0.00 | 0.00 | 0.00 | 85 | 1019.5 |
| 20260506113109 | 55 | 290 | 0.0 | 2.0 | 0.00 | 0.00 | 0.00 | 85 | 1019.5 |
| 20260506112555 | 55 | 0 | 0.0 | 3.0 | 0.00 | 0.00 | 0.00 | 85 | 1019.5 |
| 20260506112054 | 55 | 0 | 0.0 | 3.0 | 0.00 | 0.00 | 0.00 | 85 | 1019.4 |
| 20260506111558 | 55 | 0 | 0.0 | 3.0 | 0.00 | 0.00 | 0.00 | 85 | 1019.4 |
| 20260506111054 | 55 | 234 | 0.0 | 2.0 | 0.00 | 0.00 | 0.00 | 85 | 1019.4 |
| 20260506110556 | 55 | 0 | 0.0 | 1.0 | 0.00 | 0.00 | 0.00 | 85 | 1019.3 |
| 20260506105555 | 55 | 0 | 0.0 | 1.0 | 0.00 | 0.00 | 0.00 | 85 | 1019.3 |
| 20260506105055 | 55 | 0 | 0.0 | 2.0 | 0.00 | 0.00 | 0.00 | 85 | 1019.3 |
| 20260506104555 | 55 | 0 | 0.0 | 2.0 | 0.00 | 0.00 | 0.00 | 85 | 1019.3 |
| 20260506104055 | 55 | 0 | 0.0 | 1.0 | 0.00 | 0.00 | 0.00 | 85 | 1019.3 |
| 20260506103555 | 55 | 0 | 0.0 | 1.0 | 0.00 | 0.00 | 0.00 | 85 | 1019.3 |
| 20260506103057 | 55 | 0 | 0.0 | 2.0 | 0.00 | 0.00 | 0.00 | 85 | 1019.3 |
| 20260506102555 | 55 | 0 | 0.0 | 2.0 | 0.00 | 0.00 | 0.00 | 85 | 1019.3 |
| 20260506102055 | 55 | 298 | 0.0 | 3.0 | 0.00 | 0.00 | 0.00 | 85 | 1019.3 |
| 20260506101556 | 55 | 0 | 0.0 | 3.0 | 0.00 | 0.00 | 0.00 | 85 | 1019.2 |
| 20260506101054 | 55 | 0 | 0.0 | 2.0 | 0.00 | 0.00 | 0.00 | 85 | 1019.2 |
| 20260506100555 | 55 | 308 | 0.0 | 2.0 | 0.00 | 0.00 | 0.00 | 85 | 1019.2 |
| 20260506100057 | 55 | 0 | 0.0 | 2.0 | 0.00 | 0.00 | 0.00 | 85 | 1019.2 |
| 20260506095555 | 55 | 0 | 0.0 | 2.0 | 0.00 | 0.01 | 0.00 | 86 | 1019.3 |
| 20260506095055 | 55 | 0 | 0.0 | 2.0 | 0.00 | 0.01 | 0.00 | 86 | 1019.3 |
| 20260506094555 | 55 | 307 | 0.0 | 3.0 | 0.00 | 0.01 | 0.00 | 86 | 1019.3 |
| 20260506094054 | 55 | 307 | 0.0 | 3.0 | 0.00 | 0.01 | 0.00 | 86 | 1019.3 |
| 20260506093554 | 55 | 286 | 0.0 | 3.0 | 0.00 | 0.01 | 0.00 | 87 | 1019.3 |
| 20260506093058 | 55 | 0 | 0.0 | 0.0 | 0.00 | 0.01 | 0.00 | 87 | 1019.3 |
| 20260506092556 | 55 | 0 | 0.0 | 0.0 | 0.00 | 0.01 | 0.00 | 87 | 1019.3 |
| 20260506092056 | 55 | 0 | 0.0 | 0.0 | 0.00 | 0.01 | 0.00 | 87 | 1019.3 |
| 20260506091559 | 55 | 0 | 0.0 | 0.0 | 0.00 | 0.01 | 0.00 | 87 | 1019.2 |
| 20260506091054 | 55 | 0 | 0.0 | 0.0 | 0.00 | 0.01 | 0.00 | 86 | 1019.4 |
| 20260506090554 | 55 | 0 | 0.0 | 0.0 | 0.00 | 0.01 | 0.00 | 86 | 1019.2 |
| 20260506090058 | 55 | 0 | 0.0 | 0.0 | 0.00 | 0.01 | 0.00 | 86 | 1019.2 |
| 20260506085554 | 55 | 0 | 0.0 | 0.0 | 0.00 | 0.05 | 0.00 | 85 | 1019.3 |
| 20260506085055 | 55 | 0 | 0.0 | 0.0 | 0.00 | 0.05 | 0.00 | 85 | 1019.2 |
| 20260506084555 | 55 | 0 | 0.0 | 0.0 | 0.00 | 0.05 | 0.00 | 85 | 1019.3 |
| 20260506084055 | 55 | 0 | 0.0 | 1.0 | 0.00 | 0.05 | 0.00 | 85 | 1019.3 |
| 20260506083554 | 55 | 0 | 0.0 | 2.0 | 0.00 | 0.05 | 0.00 | 85 | 1019.2 |
| 20260506083057 | 55 | 0 | 0.0 | 2.0 | 0.00 | 0.05 | 0.00 | 85 | 1019.3 |
| 20260506082555 | 55 | 0 | 0.0 | 2.0 | 0.00 | 0.05 | 0.00 | 85 | 1019.4 |
| 20260506082055 | 55 | 0 | 0.0 | 2.0 | 0.00 | 0.05 | 0.00 | 85 | 1019.4 |
| 20260506081556 | 55 | 0 | 0.0 | 2.0 | 0.00 | 0.05 | 0.00 | 85 | 1019.4 |
| 20260506081055 | 56 | 0 | 0.0 | 3.0 | 0.00 | 0.05 | 0.00 | 85 | 1019.4 |
| 20260506080556 | 56 | 0 | 0.0 | 3.0 | 0.00 | 0.05 | 0.00 | 85 | 1019.4 |
| 20260506073104 | 56 | 0 | 0.0 | 4.0 | 0.00 | 0.11 | 0.00 | 84 | 1019.1 |
| 20260506072557 | 56 | 0 | 0.0 | 4.0 | 0.00 | 0.11 | 0.00 | 84 | 1019.0 |
| 20260506072053 | 56 | 0 | 0.0 | 4.0 | 0.00 | 0.11 | 0.00 | 84 | 1019.1 |
| 20260506071556 | 56 | 0 | 1.0 | 3.0 | 0.00 | 0.11 | 0.00 | 84 | 1019.1 |
| 20260506071053 | 56 | 0 | 0.0 | 3.0 | 0.00 | 0.11 | 0.00 | 85 | 1019.0 |
| 20260506070555 | 56 | 0 | 0.0 | 3.0 | 0.00 | 0.11 | 0.00 | 85 | 1018.9 |
| 20260506070116 | 56 | 0 | 0.0 | 4.0 | 0.00 | 0.11 | 0.00 | 85 | 1018.9 |
| 20260506062058 | 55 | 0 | 0.0 | 3.0 | 0.00 | 0.13 | 0.11 | 86 | 1018.7 |
| 20260506061601 | 56 | 0 | 0.0 | 4.0 | 0.00 | 0.13 | 0.11 | 86 | 1018.6 |
| 20260506061056 | 56 | 0 | 0.0 | 4.0 | 0.00 | 0.13 | 0.11 | 86 | 1018.6 |
| 20260506060556 | 56 | 0 | 0.0 | 4.0 | 0.00 | 0.13 | 0.11 | 86 | 1018.7 |
| 20260506051054 | 56 | 223 | 1.0 | 6.0 | 0.00 | 0.17 | 0.11 | 88 | 1018.4 |
| 20260506050555 | 56 | 224 | 2.0 | 6.0 | 0.00 | 0.17 | 0.11 | 89 | 1018.4 |
| 20260506050113 | 56 | 0 | 1.0 | 7.0 | 0.00 | 0.17 | 0.11 | 89 | 1018.4 |
| 20260506045056 | 56 | 232 | 2.0 | 6.0 | 0.00 | 0.20 | 0.11 | 89 | 1018.3 |
| 20260506044600 | 56 | 231 | 1.0 | 7.0 | 0.00 | 0.20 | 0.11 | 89 | 1018.3 |
| 20260506044054 | 56 | 246 | 1.0 | 7.0 | 0.00 | 0.20 | 0.11 | 89 | 1018.1 |
| 20260506043556 | 56 | 227 | 1.0 | 7.0 | 0.00 | 0.20 | 0.11 | 89 | 1018.1 |
| 20260506043057 | 56 | 0 | 1.0 | 7.0 | 0.00 | 0.20 | 0.11 | 89 | 1018.0 |
| 20260506042553 | 56 | 271 | 1.0 | 5.0 | 0.00 | 0.20 | 0.11 | 90 | 1018.0 |
| 20260506042054 | 56 | 0 | 0.0 | 4.0 | 0.00 | 0.20 | 0.11 | 89 | 1017.9 |
| 20260506041556 | 56 | 0 | 0.0 | 5.0 | 0.00 | 0.20 | 0.11 | 89 | 1017.8 |
| 20260506041055 | 56 | 200 | 0.0 | 5.0 | 0.00 | 0.20 | 0.11 | 89 | 1017.8 |
| 20260506040552 | 56 | 0 | 1.0 | 5.0 | 0.00 | 0.20 | 0.11 | 89 | 1017.8 |
| 20260506040100 | 56 | 236 | 0.0 | 4.0 | 0.00 | 0.20 | 0.11 | 90 | 1017.7 |
| 20260506035555 | 56 | 215 | 1.0 | 4.0 | 0.00 | 0.20 | 0.11 | 89 | 1017.6 |
| 20260506035054 | 56 | 0 | 0.0 | 5.0 | 0.00 | 0.20 | 0.11 | 89 | 1017.5 |
| 20260506034600 | 56 | 192 | 1.0 | 5.0 | 0.00 | 0.20 | 0.11 | 89 | 1017.5 |
| 20260506034054 | 56 | 246 | 1.0 | 10.0 | 0.00 | 0.20 | 0.11 | 89 | 1017.3 |
| 20260506033555 | 56 | 0 | 2.0 | 10.0 | 0.00 | 0.20 | 0.11 | 89 | 1017.2 |
| 20260506033103 | 56 | 214 | 0.0 | 8.0 | 0.00 | 0.20 | 0.11 | 89 | 1017.2 |
| 20260506032555 | 56 | 278 | 1.0 | 8.0 | 0.00 | 0.20 | 0.11 | 88 | 1017.2 |
| 20260506032056 | 57 | 215 | 2.0 | 8.0 | 0.00 | 0.20 | 0.11 | 88 | 1017.1 |
| 20260506031601 | 57 | 0 | 2.0 | 8.0 | 0.00 | 0.20 | 0.11 | 88 | 1017.0 |
| 20260506031056 | 57 | 214 | 1.0 | 7.0 | 0.00 | 0.20 | 0.11 | 88 | 1016.9 |
| 20260506030554 | 57 | 0 | 1.0 | 7.0 | 0.00 | 0.20 | 0.11 | 87 | 1016.8 |
| 20260506030113 | 57 | 264 | 2.0 | 10.0 | 0.00 | 0.20 | 0.11 | 87 | 1016.8 |
| 20260506025554 | 57 | 229 | 2.0 | 10.0 | 0.00 | 0.20 | 0.11 | 87 | 1016.7 |
| 20260506025054 | 57 | 245 | 3.0 | 8.0 | 0.00 | 0.20 | 0.11 | 86 | 1016.7 |
| 20260506024557 | 57 | 249 | 3.0 | 10.0 | 0.00 | 0.20 | 0.11 | 86 | 1016.8 |
| 20260506024054 | 57 | 240 | 2.0 | 10.0 | 0.00 | 0.20 | 0.11 | 86 | 1016.8 |
| 20260506023555 | 57 | 231 | 1.0 | 10.0 | 0.00 | 0.20 | 0.11 | 86 | 1016.8 |
| 20260506023056 | 57 | 190 | 2.0 | 10.0 | 0.00 | 0.20 | 0.11 | 86 | 1016.7 |
| 20260506022555 | 58 | 258 | 3.0 | 9.0 | 0.00 | 0.20 | 0.11 | 86 | 1016.6 |
| 20260506022056 | 58 | 216 | 2.0 | 10.0 | 0.00 | 0.20 | 0.11 | 86 | 1016.7 |
| 20260506021558 | 58 | 212 | 3.0 | 10.0 | 0.00 | 0.20 | 0.11 | 85 | 1016.6 |
| 20260506021056 | 58 | 240 | 3.0 | 10.0 | 0.00 | 0.20 | 0.11 | 85 | 1016.5 |
| 20260506020556 | 58 | 219 | 1.0 | 8.0 | 0.00 | 0.20 | 0.11 | 85 | 1016.5 |
| 20260506020056 | 58 | 319 | 2.0 | 12.0 | 0.00 | 0.20 | 0.11 | 84 | 1016.4 |
| 20260506015555 | 58 | 0 | 3.0 | 12.0 | 0.00 | 0.20 | 0.11 | 84 | 1016.4 |
| 20260506015055 | 59 | 228 | 3.0 | 11.0 | 0.00 | 0.20 | 0.11 | 83 | 1016.4 |
| 20260506014600 | 59 | 210 | 2.0 | 13.0 | 0.00 | 0.20 | 0.11 | 84 | 1016.3 |
| 20260506014056 | 58 | 273 | 3.0 | 13.0 | 0.00 | 0.20 | 0.11 | 83 | 1016.3 |
| 20260506013554 | 59 | 271 | 2.0 | 10.0 | 0.00 | 0.20 | 0.11 | 83 | 1016.2 |
| 20260506013100 | 59 | 40 | 2.0 | 10.0 | 0.00 | 0.20 | 0.11 | 84 | 1016.2 |
| 20260506012556 | 59 | 234 | 2.0 | 11.0 | 0.00 | 0.20 | 0.11 | 84 | 1016.3 |
| 20260506012056 | 59 | 197 | 4.0 | 11.0 | 0.00 | 0.20 | 0.11 | 83 | 1016.3 |
| 20260506011558 | 59 | 219 | 2.0 | 10.0 | 0.00 | 0.20 | 0.11 | 83 | 1016.4 |
| 20260506011054 | 58 | 229 | 3.0 | 11.0 | 0.00 | 0.20 | 0.11 | 82 | 1016.4 |
| 20260506010555 | 59 | 255 | 3.0 | 11.0 | 0.00 | 0.20 | 0.11 | 82 | 1016.4 |
| 20260506010058 | 59 | 238 | 1.0 | 10.0 | 0.00 | 0.20 | 0.11 | 83 | 1016.3 |
| 20260506005556 | 59 | 269 | 3.0 | 7.0 | 0.00 | 0.20 | 0.11 | 83 | 1016.3 |
| 20260506005054 | 59 | 236 | 2.0 | 9.0 | 0.00 | 0.20 | 0.11 | 83 | 1016.3 |
| 20260506004628 | 59 | 230 | 3.0 | 9.0 | 0.00 | 0.20 | 0.11 | 83 | 1016.3 |
| 20260506004055 | 59 | 300 | 3.0 | 9.0 | 0.00 | 0.20 | 0.11 | 83 | 1016.2 |
| 20260506003555 | 59 | 284 | 2.0 | 9.0 | 0.00 | 0.20 | 0.11 | 83 | 1016.2 |
| 20260506003059 | 59 | 286 | 3.0 | 10.0 | 0.00 | 0.20 | 0.11 | 82 | 1016.0 |
| 20260506002555 | 59 | 304 | 2.0 | 10.0 | 0.00 | 0.20 | 0.11 | 83 | 1016.0 |
| 20260506002059 | 59 | 240 | 2.0 | 13.0 | 0.00 | 0.20 | 0.11 | 84 | 1016.1 |
| 20260506001604 | 59 | 221 | 3.0 | 13.0 | 0.00 | 0.20 | 0.11 | 84 | 1016.0 |
| 20260506001055 | 59 | 319 | 3.0 | 11.0 | 0.00 | 0.20 | 0.11 | 84 | 1016.0 |
| 20260506000555 | 59 | 222 | 4.0 | 11.0 | 0.00 | 0.20 | 0.11 | 84 | 1015.9 |
| 20260506000056 | 58 | 0 | 3.0 | 11.0 | 0.00 | 0.20 | 0.11 | 85 | 1016.0 |
| 20260505235554 | 58 | 213 | 2.0 | 10.0 | 0.00 | 0.20 | 0.11 | 85 | 1016.0 |
| 20260505235054 | 58 | 248 | 3.0 | 10.0 | 0.00 | 0.20 | 0.11 | 85 | 1016.0 |
| 20260505234614 | 58 | 273 | 2.0 | 10.0 | 0.00 | 0.20 | 0.11 | 85 | 1016.1 |
| 20260505234055 | 58 | 239 | 3.0 | 14.0 | 0.00 | 0.20 | 0.11 | 86 | 1016.1 |
| 20260505233554 | 58 | 288 | 3.0 | 14.0 | 0.00 | 0.20 | 0.11 | 86 | 1016.0 |
| 20260505233057 | 58 | 200 | 4.0 | 11.0 | 0.00 | 0.20 | 0.11 | 86 | 1016.0 |
| 20260505232555 | 58 | 235 | 3.0 | 12.0 | 0.00 | 0.20 | 0.11 | 86 | 1016.1 |
| 20260505232055 | 58 | 222 | 4.0 | 12.0 | 0.00 | 0.20 | 0.11 | 85 | 1016.1 |
| 20260505231559 | 59 | 243 | 2.0 | 11.0 | 0.00 | 0.20 | 0.11 | 86 | 1016.0 |
| 20260505231054 | 58 | 186 | 4.0 | 11.0 | 0.00 | 0.20 | 0.11 | 85 | 1016.1 |
| 20260505230555 | 59 | 263 | 2.0 | 11.0 | 0.00 | 0.20 | 0.11 | 86 | 1016.1 |
| 20260505230053 | 59 | 170 | 3.0 | 11.0 | 0.00 | 0.20 | 0.11 | 85 | 1016.0 |
| 20260505225555 | 59 | 211 | 4.0 | 12.0 | 0.00 | 0.20 | 0.11 | 84 | 1016.0 |
| 20260505225055 | 59 | 295 | 2.0 | 12.0 | 0.00 | 0.20 | 0.11 | 84 | 1016.0 |
| 20260505224556 | 59 | 224 | 2.0 | 9.0 | 0.00 | 0.20 | 0.11 | 84 | 1016.0 |
| 20260505224054 | 60 | 219 | 3.0 | 12.0 | 0.00 | 0.20 | 0.11 | 83 | 1016.0 |
| 20260505223554 | 60 | 0 | 2.0 | 12.0 | 0.00 | 0.20 | 0.11 | 84 | 1016.0 |
| 20260505223103 | 60 | 269 | 1.0 | 10.0 | 0.00 | 0.20 | 0.11 | 83 | 1015.9 |
| 20260505222554 | 60 | 305 | 3.0 | 10.0 | 0.00 | 0.20 | 0.11 | 83 | 1016.0 |
| 20260505222054 | 60 | 241 | 2.0 | 9.0 | 0.00 | 0.20 | 0.11 | 84 | 1016.0 |
| 20260505221613 | 60 | 289 | 4.0 | 9.0 | 0.00 | 0.20 | 0.11 | 83 | 1016.0 |
| 20260505221054 | 61 | 193 | 3.0 | 9.0 | 0.00 | 0.20 | 0.11 | 82 | 1016.1 |
| 20260505220558 | 61 | 285 | 1.0 | 9.0 | 0.00 | 0.20 | 0.11 | 84 | 1016.1 |
| 20260505220133 | 61 | 316 | 4.0 | 9.0 | 0.00 | 0.20 | 0.11 | 82 | 1016.1 |
| 20260505215554 | 61 | 293 | 2.0 | 8.0 | 0.00 | 0.20 | 0.11 | 82 | 1016.1 |
| 20260505215055 | 61 | 0 | 2.0 | 13.0 | 0.00 | 0.20 | 0.11 | 83 | 1016.2 |
| 20260505214617 | 60 | 230 | 2.0 | 13.0 | 0.00 | 0.20 | 0.11 | 83 | 1016.2 |
| 20260505214055 | 60 | 244 | 3.0 | 11.0 | 0.00 | 0.20 | 0.11 | 83 | 1016.2 |
| 20260505213558 | 60 | 232 | 2.0 | 11.0 | 0.00 | 0.20 | 0.11 | 83 | 1016.2 |
| 20260505213057 | 60 | 250 | 2.0 | 10.0 | 0.00 | 0.20 | 0.11 | 84 | 1016.3 |
| 20260505212554 | 59 | 234 | 2.0 | 9.0 | 0.00 | 0.20 | 0.11 | 84 | 1016.4 |
| 20260505212056 | 59 | 227 | 2.0 | 9.0 | 0.00 | 0.20 | 0.11 | 84 | 1016.3 |
| 20260505211613 | 59 | 273 | 1.0 | 9.0 | 0.00 | 0.20 | 0.11 | 83 | 1016.4 |
| 20260505211055 | 60 | 254 | 3.0 | 9.0 | 0.00 | 0.20 | 0.11 | 83 | 1016.3 |
| 20260505210554 | 60 | 232 | 0.0 | 10.0 | 0.00 | 0.20 | 0.11 | 84 | 1016.3 |
| 20260505210053 | 59 | 217 | 3.0 | 10.0 | 0.00 | 0.20 | 0.11 | 83 | 1016.3 |
| 20260505205552 | 59 | 347 | 1.0 | 7.0 | 0.00 | 0.20 | 0.11 | 83 | 1016.3 |
| 20260505205055 | 59 | 231 | 2.0 | 10.0 | 0.00 | 0.20 | 0.11 | 83 | 1016.3 |
| 20260505204555 | 59 | 257 | 2.0 | 10.0 | 0.00 | 0.20 | 0.11 | 83 | 1016.3 |
| 20260505204056 | 59 | 219 | 2.0 | 10.0 | 0.00 | 0.20 | 0.11 | 83 | 1016.3 |
| 20260505203555 | 59 | 239 | 4.0 | 10.0 | 0.00 | 0.20 | 0.11 | 82 | 1016.3 |
| 20260505203104 | 59 | 254 | 2.0 | 7.0 | 0.00 | 0.20 | 0.11 | 82 | 1016.3 |
| 20260505202555 | 60 | 212 | 2.0 | 7.0 | 0.00 | 0.20 | 0.11 | 82 | 1016.3 |
| 20260505202057 | 60 | 270 | 1.0 | 7.0 | 0.00 | 0.20 | 0.11 | 82 | 1016.4 |
| 20260505201608 | 60 | 244 | 1.0 | 9.0 | 0.00 | 0.20 | 0.11 | 82 | 1016.4 |
| 20260505201055 | 60 | 0 | 2.0 | 10.0 | 0.00 | 0.20 | 0.11 | 83 | 1016.4 |
| 20260505200555 | 60 | 209 | 2.0 | 10.0 | 0.00 | 0.20 | 0.11 | 83 | 1016.4 |
| 20260505200104 | 60 | 282 | 3.0 | 10.0 | 0.00 | 0.20 | 0.11 | 83 | 1016.4 |